766  
NZUS99 KDVN 260806  
HRRRRR  
HOURLY WEATHER ROUNDUP  
NATIONAL WEATHER SERVICE QUAD CITIES IA IL  
200 AM CST MON FEB 26 2024  
 
NOTE: "FAIR" INDICATES FEW OR NO CLOUDS BELOW 12,000 FEET WITH  
NO SIGNIFICANT WEATHER AND/OR OBSTRUCTIONS TO VISIBILITY.  
------------------------------------------------------------------  
 
CITY SKY/WX TMP DP RH WIND PRES REMARKS  
BURLINGTON CLEAR 44 29 55 N10 29.80S WCI 39  
CEDAR RAPIDS CLEAR 39 29 67 NE9 29.81F WCI 33  
DAVENPORT CLEAR 41 27 57 NE7 29.84S WCI 36  
DUBUQUE CLEAR 40 29 64 NE7 29.82F WCI 35  
IOWA CITY CLEAR 43 29 57 NE3 29.84S  
MOLINE CLEAR 32 26 78 CALM 29.82S  
------------------------------------------------------------------  
THE STATIONS BELOW ARE NOT NWS STATIONS AND ARE NOT SUBJECT TO NWS  
QUALITY CONTROL. SOME STATIONS DO NOT REPORT WEATHER SUCH AS FOG.  
* - STATIONS THAT REPORT TMP AND DP IN WHOLE DEGREES CELSIUS, WHICH  
ARE THEN CONVERTED TO FAHRENHEIT. THUS, SOME FAHRENHEIT VALUES WILL  
NEVER BE OBSERVED.  
------------------------------------------------------------------  
 
CITY SKY/WX TMP DP RH WIND PRES REMARKS  
CLINTON CLEAR 37 26 64 NE5 29.84S WCI 33  
FAIRFIELD * CLOUDY 34 23 64 N8 29.82S WCI 27  
FORT MADISON * N/A 46 28 49 NE5 29.80S WCI 44  
FREEPORT CLEAR 32 27 80 CALM 29.86S  
INDEPENDENCE CLEAR 32 26 78 NE3 29.84S  
KEOKUK * PTCLDY 45 27 49 CALM 29.80S  
MACOMB CLEAR 37 24 61 NE6 29.82S WCI 32  
MONTICELLO * CLEAR 30 25 80 CALM 29.81F  
MT PLEASANT * CLEAR 37 28 70 N8 29.82S WCI 31  
MUSCATINE * CLEAR 41 28 60 N6 29.83F WCI 37  
SAVANNA * CLEAR 37 28 70 CALM 29.83F  
STERLING/R.F. CLEAR 43 28 55 NE3 29.84S  
VINTON CLEAR 33 28 81 CALM 29.82F  
WASHINGTON * CLEAR 39 28 65 NE8 29.82R WCI 34  
 
------------------------------------------------------------------  
 
 
CLICK HERE TO GO TO PREVIOUS BULLETINS.

The Nexlab IL Page
The Nexlab IA Page
The Nexlab MO Page Main Text Page